Weather observations for the past three days for
Ogden-Hinckley Airport
Imperial (Metric)
Date Time (mdt) Wind (mph) Vis. (mi.) Weather Sky Cond. Temperature (ºF) Relative Humidity Wind Chill (°F) Heat Index (°F) Pressure Precipitation (in)
Air Dwpt 6 hour altimeter (in) sea level (mb) 1 hr 3 hr 6 hr
Max. Min.
10 01:53 N 5 10.00 Fair CLR 59 24.1 26% 30.13 1016.0
10 00:53 S 8 10.00 Fair CLR 55 26.1 33% 30.13 1016.3
09 23:53 S 8 10.00 Fair CLR 57 27 73 55.9 32% 30.11 1015.9
09 22:53 S 7 10.00 Fair CLR 59 25 27% 30.11 1015.4
09 21:53 E 6 10.00 Fair CLR 62.1 26.1 25% 30.09 1014.9
09 20:53 W 3 10.00 Fair CLR 68 18 15% 30.06 1013.5
09 19:53 SW 3 10.00 Fair CLR 70 18 14% 30.05 1013.1
09 18:53 E 3 10.00 Fair CLR 72 16 12% 30.05 1013.3
09 17:53 NW 6 10.00 Fair CLR 72 17.1 72 66 12% 30.05 1013.4
09 16:53 Vrbl 7 10.00 Fair CLR 72 19 13% 30.07 1013.7
09 15:53 Vrbl 5 G 16 10.00 Fair CLR 70 23 17% 30.09 1014.4
09 14:53 Vrbl 6 G 17 10.00 Fair CLR 69.1 24.1 18% 30.1 1014.6
09 13:53 W 8 10.00 Fair CLR 70 24.1 18% 30.1 1014.9
09 12:53 N 13 G 18 10.00 Fair CLR 69.1 21 16% 30.11 1015.3
09 11:53 N 9 G 18 10.00 Fair CLR 66.9 21 68 52 17% 30.12 1015.5
09 10:53 N 13 10.00 Fair CLR 66.9 21 17% 30.12 1015.3
09 09:53 NW 8 10.00 Fair CLR 64 27 25% 30.11 1015.2
09 08:53 NW 7 10.00 Fair CLR 62.1 28 28% 30.11 1015.0
09 07:53 W 6 10.00 Fair CLR 57.9 32 38% 30.09 1014.7
09 06:53 SW 5 10.00 Fair CLR 54 28 37% 30.08 1014.0
09 05:53 Calm 10.00 Fair CLR 55 26.1 62.1 55 33% 30.06 1013.5
09 04:53 NW 5 10.00 Fair CLR 57.9 25 28% 30.05 1013.0
09 03:53 NW 8 10.00 Fair CLR 59 25 27% 30.04 1012.6
09 02:53 Calm 10.00 Fair CLR 61 21.9 22% 30.03 1012.0
09 01:53 N 8 10.00 Fair CLR 60.1 30 32% 30.01 1011.7
09 00:53 N 6 10.00 Fair CLR 61 32 34% 30 1011.3
08 23:53 N 7 10.00 Fair CLR 62.1 33.1 75 57 34% 29.99 1010.8
08 22:53 N 3 10.00 Fair CLR 64 34 33% 29.98 1010.4
08 21:53 NW 5 10.00 Fair CLR 66.9 32 27% 29.96 1010.0
08 20:53 SE 5 10.00 Fair CLR 69.1 30.9 24% 29.94 1009.2
08 19:53 S 7 10.00 Fair CLR 70 30.9 23% 29.93 1009.3
08 18:53 S 7 10.00 Fair CLR 75 28.9 18% 76 29.94 1009.8
08 17:53 S 9 10.00 Fair CLR 75 28.9 75.9 69.1 18% 76 29.96 1010.4
08 16:53 Calm 10.00 Fair CLR 73.9 28.9 19% 29.97 1010.5
08 15:53 Vrbl 3 10.00 Fair CLR 73 28 19% 29.99 1011.6
08 14:53 NW 5 10.00 Fair CLR 73 30 20% 30.01 1012.1
08 13:53 W 6 10.00 Fair CLR 72 30 21% 30.02 1012.4
08 12:53 N 5 10.00 Fair CLR 71.1 32 24% 30.03 1012.7
08 11:53 Vrbl 5 10.00 Fair CLR 69.1 34 69.1 48.9 27% 30.05 1013.3
08 10:53 Vrbl 5 10.00 Fair CLR 68 36 31% 30.05 1013.3
08 09:53 S 3 10.00 Fair CLR 64 37 37% 30.04 1013.2
08 08:53 S 7 10.00 Fair CLR 60.1 36 41% 30.04 1012.8
08 07:53 S 12 10.00 Fair CLR 54 35.1 49% 30.02 1012.6
08 06:53 S 10 10.00 Fair CLR 48.9 34 56% 45 30 1012.0
08 05:53 S 10 10.00 Fair CLR 48.9 35.1 55.9 48.9 59% 45 29.98 1011.4
08 04:53 S 13 10.00 Fair CLR 51.1 34 52% 29.98 1011.2
08 03:53 S 12 10.00 Fair CLR 51.1 35.1 54% 29.97 1011.0
08 02:53 S 8 10.00 Fair CLR 52 36 55% 29.97 1011.0
08 01:53 S 9 10.00 Fair CLR 53.1 36 52% 29.97 1010.8
08 00:53 S 8 10.00 Fair CLR 55 36 49% 29.97 1010.7
07 23:53 S 7 10.00 Fair CLR 55.9 37 73.9 55 49% 29.96 1010.5
07 22:53 S 7 10.00 Fair CLR 57 37 47% 29.95 1010.3
07 21:53 S 6 10.00 Fair CLR 62.1 36 38% 29.94 1009.9
07 20:53 S 5 10.00 Fair CLR 66.9 34 30% 29.93 1009.4
07 19:53 SW 6 10.00 Fair CLR 70 35.1 28% 29.92 1009.3
07 18:53 SW 7 10.00 Fair CLR 73 30.9 21% 29.93 1009.5
07 17:53 SW 9 10.00 Fair CLR 73 32 73.9 68 22% 29.94 1009.8
07 16:53 S 5 10.00 Fair CLR 71.1 32 24% 29.96 1010.7
07 15:53 Vrbl 6 10.00 Fair CLR 70 33.1 26% 29.99 1012.0
07 14:53 W 7 10.00 Fair CLR 70 30 23% 30.01 1012.7
07 13:53 SW 8 10.00 A Few Clouds FEW100 70 27 20% 30.03 1013.0
07 12:53 S 9 10.00 A Few Clouds FEW110 69.1 27 21% 30.03 1013.5
07 11:53 S 12 10.00 Mostly Cloudy BKN100 66.9 26.1 66.9 46.9 21% 30.05 1014.1
07 10:53 S 17 G 26 10.00 Partly Cloudy SCT110 66 26.1 22% 30.06 1014.3
07 09:53 S 10 10.00 Partly Cloudy SCT110 61 28.9 30% 30.07 1014.8
07 08:53 SE 6 10.00 Partly Cloudy SCT110 55 30 38% 30.08 1015.4
07 07:53 SE 6 10.00 Overcast OVC100 52 28.9 41% 30.06 1015.0
07 06:53 SE 12 10.00 Overcast OVC100 48 28.9 48% 44 30.05 1014.8
07 05:53 S 6 10.00 Mostly Cloudy BKN100 BKN120 48 28.9 50 46 48% 46 30.07 1015.4
07 04:53 S 10 10.00 Overcast OVC100 48 28.9 48% 44 30.07 1015.0
07 03:53 S 10 10.00 Fair CLR 46 28.9 51% 42 30.07 1015.4
07 02:53 S 9 10.00 Fair CLR 46.9 28.9 50% 43 30.09 1016.1
Date Time (mdt) Wind (mph) Vis. (mi.) Weather Sky Cond. Air Dwpt Max. Min. Relative Humidity Wind Chill (°F) Heat Index (°F) altimeter (in) sea level (mb) 1 hr 3 hr 6 hr
6 hour
Temperature (ºF) Pressure Precipitation (in)